Home > Time Zones > World Clock > Weather > Italy > Parma > Past weeks

Flag for Italy Weather past 2 weeks in Parma, Italy

Now
41 °F

Clear.


Feels Like: 39 °F
Forecast: 34 / 53 °F
Wind: 3 mph from North

Location: Parma

Current Time: Mar 6, 2015 at 10:50:14 PM

Latest Report: Mar 6, 2015 at 9:50 PM


Visibility: 10 mi

Pressure: 30.42 "Hg

Humidity: 61%

Dew point: 28 °F

Location of ParmaLocation

Historic Weather in Parma — Graph

°F

Parma temperature yesterday

Maximum temperature yesterday: 55 °F (at 2:50 PM)
Minimum temperature yesterday: 37 °F (at 7:00 AM)
Average temperature yesterday: 48 °F

Past Weeks' High & Low Weather Summary

 TemperatureHumidityPressure
High55 °F (Mar 1, 4:50 PM)100% (Feb 22, 10:50 PM)30.45 "Hg (Feb 22, 10:50 PM)
Low30 °F (Feb 20, 7:00 AM)26% (Mar 6, 3:50 PM)29.50 "Hg (Feb 22, 7:00 AM)
Average46 °F76%29.97 "Hg
* Reported Feb 19 8:50 PM — Mar 6 8:50 PM, Parma, Weather by CustomWeather, © 2015

Note: Actual official high and low records may vary slightly from our data, if they occured in-between our weather recording intervals... More about our weather records

Advertising

Parma weather history for previous 24 hours

 ConditionsComfort  
Time TempWeatherWind HumidityBarometerVisibility
8:50 PM
Fri, Mar 6
45 °FClear.2 mph57%30.42 "Hg10 mi
7:50 PM45 °FClear.2 mph53%30.39 "Hg10 mi
6:50 PM48 °FClear.2 mph43%30.39 "Hg10 mi
5:50 PM52 °FSunny.5 mph35%30.39 "Hg10 mi
4:50 PM54 °FSunny.2 mph30%30.39 "Hg10 mi
3:50 PM54 °FPassing clouds.6 mph26%30.39 "HgN/A
2:50 PM54 °FSunny.3 mph35%30.39 "Hg10 mi
1:50 PM52 °FSunny.3 mph32%30.42 "Hg10 mi
12:50 PM52 °FPassing clouds.7 mph30%30.45 "HgN/A
11:50 AM52 °FPassing clouds.8 mph28%30.45 "HgN/A
10:50 AM50 °FPassing clouds.8 mph37%30.45 "HgN/A
9:50 AM46 °FSunny.3 mph50%30.45 "Hg10 mi
8:50 AM41 °FSunny.1 mph70%30.45 "Hg10 mi
7:50 AM34 °FSunny.3 mph81%30.45 "Hg10 mi
7:00 AM34 °FSunny.5 mph70%30.42 "Hg10 mi
10:50 PM
Thu, Mar 5
45 °FClear.12 mph37%30.24 "Hg10 mi
Weather by CustomWeather, © 2015

See weather overviewHow to use our weather pages